ProjectID,Date,Electric Generation,Electric Utility Import,Facility Electric Load
,YYYY-MM-DD,kW,kW,kW
58,2010-02-01,0.0,,0.0
58,2010-02-02,0.0,,0.0
58,2010-02-03,0.0,,0.0
58,2010-02-04,0.0,,0.0
58,2010-02-05,0.0,,0.0
58,2010-02-06,0.0,,0.0
58,2010-02-07,0.0,,0.0
58,2010-02-08,0.0,,0.0
58,2010-02-09,0.0,,0.0
58,2010-02-10,0.0,,0.0
58,2010-02-11,0.0,62.0,62.0
58,2010-02-12,0.0,,0.0
58,2010-02-13,0.0,,0.0
58,2010-02-14,0.0,,0.0
58,2010-02-15,0.0,,0.0
58,2010-02-16,0.0,,0.0
58,2010-02-17,0.0,,0.0
58,2010-02-18,0.0,,0.0
58,2010-02-19,0.0,,0.0
58,2010-02-20,0.0,,0.0
58,2010-02-21,0.0,,0.0
58,2010-02-22,0.0,,0.0
58,2010-02-23,0.0,,0.0
58,2010-02-24,0.0,,0.0
58,2010-02-25,0.0,,0.0
58,2010-02-26,0.0,,0.0
58,2010-02-27,0.0,,0.0
58,2010-02-28,0.0,,0.0
58,2010-03-01,185.75729166666667,60.901041666666664,246.65833333333333
58,2010-03-02,167.47604166666667,75.38333333333334,242.859375
58,2010-03-03,186.6833333333333,58.86041666666667,245.54375
58,2010-03-04,139.79791666666668,116.40104166666667,256.19895833333334
58,2010-03-05,196.68958333333333,54.42395833333333,251.11354166666666
58,2010-03-06,193.43645833333335,56.37916666666666,249.815625
58,2010-03-07,176.39166666666665,66.88541666666667,243.27708333333334
58,2010-03-08,176.34583333333333,66.25208333333333,242.59791666666666
58,2010-03-09,117.04270833333334,111.34375,228.38645833333334
58,2010-03-10,37.550000000000004,183.92291666666665,221.47291666666666
58,2010-03-11,79.41041666666666,146.11770833333333,225.528125
58,2010-03-12,77.30312500000001,152.3375,229.640625
58,2010-03-13,76.03229166666667,145.43020833333333,221.46249999999998
58,2010-03-14,79.83541666666666,140.26770833333333,220.10312499999998
58,2010-03-15,79.96458333333334,147.95729166666666,227.921875
58,2010-03-16,84.44583333333334,139.38333333333333,223.82916666666665
58,2010-03-17,117.02604166666667,102.88437499999999,219.91041666666666
58,2010-03-18,155.16666666666666,58.83229166666666,213.99895833333332
58,2010-03-19,141.70729166666666,58.324999999999996,200.03229166666665
58,2010-03-20,0.0,,0.0
58,2010-03-21,6.427083333333333,38.45,44.87708333333334
58,2010-03-22,79.08854166666667,120.05520833333333,199.14375
58,2010-03-23,143.49895833333332,58.134375,201.63333333333333
58,2010-03-24,150.42499999999998,76.84791666666666,227.27291666666665
58,2010-03-25,160.90833333333333,66.74895833333333,227.65729166666665
58,2010-03-26,154.21979166666668,53.77291666666667,207.99270833333335
58,2010-03-27,171.69062499999998,59.715624999999996,231.40624999999997
58,2010-03-28,168.66770833333334,56.479166666666664,225.146875
58,2010-03-29,7.229166666666667,45.75,52.979166666666664
58,2010-03-30,161.73645833333333,70.85625,232.59270833333335
58,2010-03-31,155.35416666666666,70.5125,225.86666666666667
58,2010-04-01,131.96041666666667,71.27608695652174,203.2365036231884
58,2010-04-02,0.0,,0.0
58,2010-04-03,0.0,,0.0
58,2010-04-04,0.0,,0.0
58,2010-04-05,0.0,,0.0
58,2010-04-06,0.0,145.35,145.35
58,2010-04-07,70.734375,91.31354166666667,162.04791666666665
58,2010-04-08,111.32916666666667,53.01521739130435,164.344384057971
58,2010-04-09,0.0,,0.0
58,2010-04-10,5.627083333333334,55.775,61.40208333333333
58,2010-04-11,77.93541666666667,85.79791666666667,163.73333333333335
58,2010-04-12,105.93020833333333,55.29270833333334,161.22291666666666
58,2010-04-13,118.81458333333335,53.59583333333333,172.41041666666666
58,2010-04-14,123.22500000000001,55.08541666666667,178.31041666666667
58,2010-04-15,122.67812500000001,54.67395833333333,177.35208333333333
58,2010-04-16,139.83958333333334,57.45729166666666,197.296875
58,2010-04-17,140.14270833333333,54.07916666666667,194.221875
58,2010-04-18,141.24270833333333,54.49270833333333,195.73541666666665
58,2010-04-19,86.20729166666666,83.70729166666666,169.91458333333333
58,2010-04-20,111.48020833333334,56.603125,168.08333333333334
58,2010-04-21,113.52916666666665,59.37291666666667,172.90208333333334
58,2010-04-22,133.38958333333332,57.956250000000004,191.34583333333333
58,2010-04-23,106.52916666666665,54.71458333333334,161.24374999999998
58,2010-04-24,107.62604166666667,53.86875,161.49479166666666
58,2010-04-25,106.99374999999999,55.4375,162.43124999999998
58,2010-04-26,108.42291666666667,54.66354166666667,163.08645833333333
58,2010-04-27,129.14583333333334,58.66979166666667,187.815625
58,2010-04-28,135.90520833333332,56.362500000000004,192.26770833333333
58,2010-04-29,108.73645833333335,56.369791666666664,165.10625000000002
58,2010-04-30,40.032291666666666,116.96249999999999,156.99479166666666
58,2010-05-01,0.0,137.42395833333333,137.42395833333333
58,2010-05-02,0.0,122.76875,122.76875
58,2010-05-03,0.0,123.409375,123.409375
58,2010-05-04,5.904166666666666,123.31354166666667,129.21770833333332
58,2010-05-05,0.0,142.13333333333333,142.13333333333333
58,2010-05-06,68.15625,67.53854166666666,135.69479166666667
58,2010-05-07,143.21562500000002,14.705208333333333,157.92083333333335
58,2010-05-08,137.92083333333332,14.674999999999999,152.59583333333333
58,2010-05-09,145.98333333333332,14.822916666666666,160.80624999999998
58,2010-05-10,138.33958333333334,23.129166666666666,161.46875
58,2010-05-11,132.86354166666666,30.651041666666668,163.51458333333332
58,2010-05-12,154.89791666666667,16.847916666666666,171.74583333333334
58,2010-05-13,158.94062499999998,15.768749999999999,174.709375
58,2010-05-14,163.57395833333334,15.582291666666668,179.15625
58,2010-05-15,155.39583333333334,14.567708333333334,169.96354166666669
58,2010-05-16,143.70104166666667,14.444791666666667,158.14583333333334
58,2010-05-17,147.28854166666667,14.894791666666668,162.18333333333334
58,2010-05-18,163.140625,11.351086956521739,174.49171195652173
58,2010-05-19,7.527083333333334,12.4,19.927083333333336
58,2010-05-20,176.92499999999998,15.613541666666668,192.53854166666665
58,2010-05-21,176.81979166666667,19.458333333333332,196.27812500000002
58,2010-05-22,174.31770833333334,14.560416666666667,188.878125
58,2010-05-23,103.00625000000001,85.20520833333333,188.21145833333333
58,2010-05-24,96.74374999999999,97.88645833333334,194.63020833333331
58,2010-05-25,96.82916666666667,110.30208333333333,207.13125
58,2010-05-26,54.88229166666667,163.07291666666666,217.95520833333333
58,2010-05-27,0.0,206.228125,206.228125
58,2010-05-28,90.878125,102.99791666666665,193.87604166666665
58,2010-05-29,202.97187499999998,15.90625,218.87812499999998
58,2010-05-30,211.390625,17.256249999999998,228.646875
58,2010-05-31,223.70833333333334,18.301041666666666,242.009375
58,2010-06-01,235.20000000000002,30.786458333333332,265.98645833333336
58,2010-06-02,232.81145833333335,19.277083333333334,252.08854166666669
58,2010-06-03,233.16875000000002,35.09791666666667,268.2666666666667
58,2010-06-04,236.3322916666667,31.938541666666666,268.27083333333337
58,2010-06-05,245.73958333333334,32.911458333333336,278.6510416666667
58,2010-06-06,241.64374999999998,44.47604166666667,286.11979166666663
58,2010-06-07,216.53437499999998,14.720833333333333,231.25520833333331
58,2010-06-08,220.13125,17.708333333333332,237.83958333333334
58,2010-06-09,217.7541666666667,16.728125000000002,234.4822916666667
58,2010-06-10,230.98645833333333,16.447916666666668,247.434375
58,2010-06-11,234.3708333333333,14.257291666666667,248.62812499999998
58,2010-06-12,226.3083333333333,14.06875,240.3770833333333
58,2010-06-13,221.0427083333333,28.821875000000002,249.86458333333331
58,2010-06-14,132.27291666666667,102.56145833333333,234.83437500000002
58,2010-06-15,245.96562500000002,23.889583333333334,269.85520833333334
58,2010-06-16,240.42499999999998,24.43958333333333,264.8645833333333
58,2010-06-17,251.2385416666667,19.993750000000002,271.2322916666667
58,2010-06-18,245.76458333333335,27.900000000000002,273.6645833333333
58,2010-06-19,253.74375,30.125,283.86875
58,2010-06-20,249.75104166666665,55.859375,305.61041666666665
58,2010-06-21,261.99895833333335,55.56979166666667,317.56875
58,2010-06-22,166.27291666666667,201.421875,367.6947916666667
58,2010-06-23,128.61249999999998,202.3166666666667,330.9291666666667
58,2010-06-24,20.508333333333333,299.1791666666667,319.6875
58,2010-06-25,18.776041666666668,276.70520833333336,295.48125000000005
58,2010-06-26,0.0,290.72291666666666,290.72291666666666
58,2010-06-27,0.0,310.675,310.675
58,2010-06-28,211.48229166666667,117.05108695652174,328.5333786231884
58,2010-06-29,0.0,,0.0
58,2010-06-30,0.0,,0.0
58,2010-07-01,0.0,,0.0
58,2010-07-02,0.0,,0.0
58,2010-07-03,0.0,,0.0
58,2010-07-04,0.0,,0.0
58,2010-07-05,0.0,,0.0
58,2010-07-06,6.588541666666667,197.475,204.06354166666665
58,2010-07-07,175.0114583333333,155.696875,330.7083333333333
58,2010-07-08,308.84375,45.84583333333333,354.6895833333333
58,2010-07-09,274.63124999999997,80.60312499999999,355.23437499999994
58,2010-07-10,221.71354166666666,104.00937499999999,325.72291666666666
58,2010-07-11,231.70416666666665,90.35729166666665,322.0614583333333
58,2010-07-12,234.92708333333334,88.72500000000001,323.65208333333334
58,2010-07-13,127.38541666666667,89.05192307692307,216.43733974358975
58,2010-07-14,12.90625,15.4,28.30625
58,2010-07-15,146.86354166666666,145.12395833333332,291.98749999999995
58,2010-07-16,127.2625,184.9645833333333,312.2270833333333
58,2010-07-17,113.09479166666667,178.04583333333335,291.140625
58,2010-07-18,209.6135416666667,88.30624999999999,297.9197916666667
58,2010-07-19,140.36770833333333,151.49583333333334,291.86354166666666
58,2010-07-20,247.19479166666667,38.65,285.84479166666665
58,2010-07-21,165.83958333333334,121.79166666666667,287.63125
58,2010-07-22,72.76666666666667,196.4416666666667,269.20833333333337
58,2010-07-23,192.47708333333333,92.77916666666665,285.25624999999997
58,2010-07-24,212.109375,100.27065217391304,312.38002717391305
58,2010-07-25,0.0,,0.0
58,2010-07-26,0.0,,0.0
58,2010-07-27,0.0,,0.0
58,2010-07-28,0.0,,0.0
58,2010-07-29,0.0,,0.0
58,2010-07-30,0.0,,0.0
58,2010-07-31,0.0,,0.0
58,2010-08-01,0.0,0.0,0.0
58,2010-08-02,0.0,0.0,0.0
58,2010-08-03,0.0,0.0,0.0
58,2010-08-04,0.0,0.0,0.0
58,2010-08-05,0.0,0.0,0.0
58,2010-08-06,0.0,0.0,0.0
58,2010-08-07,0.0,0.0,0.0
58,2010-08-08,0.0,0.0,0.0
58,2010-08-09,0.0,0.0,0.0
58,2010-08-10,0.0,0.0,0.0
58,2010-08-11,0.0,0.0,0.0
58,2010-08-12,0.0,0.0,0.0
58,2010-08-13,0.0,0.0,0.0
58,2010-08-14,0.0,0.0,0.0
58,2010-08-15,0.0,0.0,0.0
58,2010-08-16,0.0,0.0,0.0
58,2010-08-17,0.0,0.0,0.0
58,2010-08-18,0.0,0.0,0.0
58,2010-08-19,0.0,0.0,0.0
58,2010-08-20,0.0,0.0,0.0
58,2010-08-21,0.0,0.0,0.0
58,2010-08-22,0.0,0.0,0.0
58,2010-08-23,0.0,0.0,0.0
58,2010-08-24,0.0,0.0,0.0
58,2010-08-25,0.0,0.0,0.0
58,2010-08-26,0.0,0.0,0.0
58,2010-08-27,0.0,0.0,0.0
58,2010-08-28,0.0,0.0,0.0
58,2010-08-29,0.0,0.0,0.0
58,2010-08-30,0.0,0.0,0.0
58,2010-08-31,0.0,0.0,0.0
58,2010-09-01,0.0,0.0,0.0
58,2010-09-02,0.0,0.0,0.0
58,2010-09-03,0.0,0.0,0.0
58,2010-09-04,0.0,0.0,0.0
58,2010-09-05,0.0,0.0,0.0
58,2010-09-06,0.0,0.0,0.0
58,2010-09-07,0.0,0.0,0.0
58,2010-09-08,0.0,0.0,0.0
58,2010-09-09,0.0,0.0,0.0
58,2010-09-10,0.0,0.0,0.0
58,2010-09-11,0.0,0.0,0.0
58,2010-09-12,0.0,0.0,0.0
58,2010-09-13,0.0,0.0,0.0
58,2010-09-14,0.0,0.0,0.0
58,2010-09-15,0.0,0.0,0.0
58,2010-09-16,0.0,0.0,0.0
58,2010-09-17,0.0,0.0,0.0
58,2010-09-18,0.0,0.0,0.0
58,2010-09-19,0.0,0.0,0.0
58,2010-09-20,0.0,0.0,0.0
58,2010-09-21,0.0,0.0,0.0
58,2010-09-22,0.0,0.0,0.0
58,2010-09-23,0.0,0.0,0.0
58,2010-09-24,0.0,0.0,0.0
58,2010-09-25,0.0,0.0,0.0
58,2010-09-26,0.0,0.0,0.0
58,2010-09-27,0.0,0.0,0.0
58,2010-09-28,0.0,0.0,0.0
58,2010-09-29,0.0,0.0,0.0
58,2010-09-30,0.0,0.0,0.0
58,2010-10-01,0.0,0.0,0.0
58,2010-10-02,0.0,0.0,0.0
58,2010-10-03,0.0,0.0,0.0
58,2010-10-04,0.0,0.0,0.0
58,2010-10-05,0.0,0.0,0.0
58,2010-10-06,0.0,0.0,0.0
58,2010-10-07,0.0,0.0,0.0
58,2010-10-08,0.0,0.0,0.0
58,2010-10-09,0.0,0.0,0.0
58,2010-10-10,0.0,0.0,0.0
58,2010-10-11,0.0,0.0,0.0
58,2010-10-12,0.0,0.0,0.0
58,2010-10-13,0.0,0.0,0.0
58,2010-10-14,0.0,0.0,0.0
58,2010-10-15,0.0,0.0,0.0
58,2010-10-16,0.0,0.0,0.0
58,2010-10-17,0.0,0.0,0.0
58,2010-10-18,0.0,0.0,0.0
58,2010-10-19,0.0,0.0,0.0
58,2010-10-20,0.0,0.0,0.0
58,2010-10-21,0.0,0.0,0.0
58,2010-10-22,0.0,0.0,0.0
58,2010-10-23,0.0,0.0,0.0
58,2010-10-24,0.0,0.0,0.0
58,2010-10-25,0.0,0.0,0.0
58,2010-10-26,0.0,0.0,0.0
58,2010-10-27,0.0,0.0,0.0
58,2010-10-28,0.0,0.0,0.0
58,2010-10-29,0.0,0.0,0.0
58,2010-10-30,0.0,0.0,0.0
58,2010-10-31,0.0,0.0,0.0
58,2010-11-01,0.0,,0.0
58,2010-11-02,0.0,,0.0
58,2010-11-03,0.0,,0.0
58,2010-11-04,0.0,,0.0
58,2010-11-05,0.0,,0.0
58,2010-11-06,0.0,,0.0
58,2010-11-07,0.0,,0.0
58,2010-11-08,0.0,,0.0
58,2010-11-09,0.0,,0.0
58,2010-11-10,0.0,,0.0
58,2010-11-11,0.0,,0.0
58,2010-11-12,0.0,,0.0
58,2010-11-13,0.0,,0.0
58,2010-11-14,0.0,,0.0
58,2010-11-15,0.0,,0.0
58,2010-11-16,0.0,,0.0
58,2010-11-17,0.0,,0.0
58,2010-11-18,0.0,,0.0
58,2010-11-19,0.0,,0.0
58,2010-11-20,0.0,,0.0
58,2010-11-21,0.0,,0.0
58,2010-11-22,0.0,,0.0
58,2010-11-23,0.0,,0.0
58,2010-11-24,0.0,,0.0
58,2010-11-25,0.0,,0.0
58,2010-11-26,0.0,,0.0
58,2010-11-27,0.0,,0.0
58,2010-11-28,0.0,,0.0
58,2010-11-29,0.0,,0.0
58,2010-11-30,0.0,20.50978260869565,20.50978260869565
58,2010-12-01,198.37812499999998,35.58645833333333,233.9645833333333
58,2010-12-02,200.4416666666667,38.12916666666667,238.57083333333335
58,2010-12-03,200.92916666666667,32.780208333333334,233.70937500000002
58,2010-12-04,186.81562499999998,33.003125000000004,219.81875
58,2010-12-05,169.55625,33.49791666666667,203.05416666666667
58,2010-12-06,167.14791666666667,32.72604166666667,199.87395833333335
58,2010-12-07,171.296875,31.363541666666666,202.66041666666666
58,2010-12-08,167.34687499999998,34.75625,202.10312499999998
58,2010-12-09,159.47395833333334,46.95729166666666,206.43125
58,2010-12-10,159.171875,48.73333333333333,207.90520833333332
58,2010-12-11,159.09270833333332,51.59583333333333,210.68854166666665
58,2010-12-12,145.36458333333334,62.387499999999996,207.75208333333333
58,2010-12-13,133.85729166666667,72.0125,205.86979166666669
58,2010-12-14,159.53333333333333,70.83854166666667,230.371875
58,2010-12-15,184.48958333333334,61.456250000000004,245.94583333333335
58,2010-12-16,233.61770833333333,32.71145833333333,266.32916666666665
58,2010-12-17,227.06875,32.166666666666664,259.23541666666665
58,2010-12-18,230.9729166666667,32.32395833333333,263.296875
58,2010-12-19,245.79583333333335,31.5,277.29583333333335
58,2010-12-20,246.1760416666667,33.514583333333334,279.690625
58,2010-12-21,226.65729166666665,32.670833333333334,259.328125
58,2010-12-22,221.640625,33.67916666666667,255.31979166666667
58,2010-12-23,226.43541666666667,31.822916666666668,258.2583333333333
58,2010-12-24,232.225,31.504166666666666,263.7291666666667
58,2010-12-25,222.63541666666666,33.87708333333333,256.5125
58,2010-12-26,227.26770833333333,32.68541666666667,259.953125
58,2010-12-27,214.9416666666667,31.727083333333336,246.66875000000002
58,2010-12-28,230.35729166666667,33.29895833333333,263.65625
58,2010-12-29,237.15625,32.967708333333334,270.12395833333335
58,2010-12-30,230.99479166666666,34.729166666666664,265.7239583333333
58,2010-12-31,232.40104166666666,32.954166666666666,265.35520833333334
58,2011-01-01,227.76041666666666,33.028124999999996,260.7885416666667
58,2011-01-02,229.6,32.46145833333333,262.06145833333335
58,2011-01-03,232.42708333333334,38.840624999999996,271.26770833333336
58,2011-01-04,231.396875,35.99270833333333,267.38958333333335
58,2011-01-05,226.67916666666667,42.37916666666667,269.05833333333334
58,2011-01-06,216.62395833333335,29.920833333333334,246.5447916666667
58,2011-01-07,235.0270833333333,33.27708333333333,268.3041666666666
58,2011-01-08,239.2541666666667,35.521875,274.7760416666667
58,2011-01-09,244.22187499999998,32.06979166666667,276.29166666666663
58,2011-01-10,241.7385416666667,32.063541666666666,273.80208333333337
58,2011-01-11,236.15104166666666,33.512499999999996,269.6635416666667
58,2011-01-12,239.72708333333333,32.348958333333336,272.07604166666664
58,2011-01-13,249.21354166666666,32.87708333333333,282.090625
58,2011-01-14,247.96562500000002,33.671875,281.63750000000005
58,2011-01-15,228.9489583333333,30.609375,259.5583333333333
58,2011-01-16,236.96770833333335,31.915625000000002,268.8833333333333
58,2011-01-17,241.46145833333333,31.590625,273.0520833333333
58,2011-01-18,244.93437500000002,33.793749999999996,278.72812500000003
58,2011-01-19,249.56979166666667,32.26354166666667,281.83333333333337
58,2011-01-20,239.05520833333333,36.588541666666664,275.64375
58,2011-01-21,242.2385416666667,33.737500000000004,275.9760416666667
58,2011-01-22,252.10104166666667,33.43125,285.53229166666665
58,2011-01-23,264.53125,35.081250000000004,299.6125
58,2011-01-24,259.409375,34.979166666666664,294.3885416666667
58,2011-01-25,251.45104166666667,32.739583333333336,284.190625
58,2011-01-26,253.11145833333333,34.905208333333334,288.01666666666665
58,2011-01-27,247.78645833333334,34.155208333333334,281.94166666666666
58,2011-01-28,243.984375,32.4,276.384375
58,2011-01-29,239.87708333333333,33.606249999999996,273.48333333333335
58,2011-01-30,244.17291666666665,33.22083333333333,277.39374999999995
58,2011-01-31,239.37708333333333,32.123958333333334,271.50104166666665
58,2011-02-01,245.08333333333334,34.37708333333333,279.4604166666667
58,2011-02-02,243.63229166666667,32.45729166666667,276.08958333333334
58,2011-02-03,0.0,,0.0
58,2011-02-04,0.0,,0.0
58,2011-02-05,0.0,,0.0
58,2011-02-06,0.0,,0.0
58,2011-02-07,235.53958333333333,34.322916666666664,269.8625
58,2011-02-08,240.6135416666667,33.86145833333333,274.475
58,2011-02-09,254.19270833333334,31.188541666666666,285.38125
58,2011-02-10,243.11666666666667,36.565625000000004,279.6822916666667
58,2011-02-11,247.57291666666666,33.04895833333333,280.621875
58,2011-02-12,0.0,,0.0
58,2011-02-13,0.0,31.170833333333334,31.170833333333334
58,2011-02-14,146.803125,35.44895833333333,182.25208333333333
58,2011-02-15,243.13333333333333,40.885416666666664,284.01875
58,2011-02-16,228.04583333333335,32.69166666666667,260.7375
58,2011-02-17,225.49375,32.66770833333333,258.1614583333333
58,2011-02-18,215.2541666666667,35.715624999999996,250.96979166666668
58,2011-02-19,245.59270833333335,30.832291666666666,276.425
58,2011-02-20,245.50208333333333,32.30520833333333,277.8072916666667
58,2011-02-21,238.95624999999998,32.184374999999996,271.140625
58,2011-02-22,233.4177083333333,33.916666666666664,267.33437499999997
58,2011-02-23,230.3947916666667,32.237500000000004,262.6322916666667
58,2011-02-24,238.75208333333333,34.30625,273.05833333333334
58,2011-02-25,239.77916666666667,32.38229166666667,272.1614583333333
58,2011-02-26,238.46354166666666,33.321875,271.78541666666666
58,2011-02-27,241.03437499999998,33.473958333333336,274.5083333333333
58,2011-02-28,184.2385416666667,78.68229166666667,262.92083333333335
58,2011-03-01,156.58020833333333,106.73333333333333,263.31354166666665
58,2011-03-02,215.21145833333333,38.479166666666664,253.69062499999998
58,2011-03-03,216.90937499999998,39.18333333333333,256.0927083333333
58,2011-03-04,212.83645833333333,37.884375,250.72083333333333
58,2011-03-05,229.78020833333335,37.8125,267.59270833333335
58,2011-03-06,215.98749999999998,35.204166666666666,251.19166666666666
58,2011-03-07,219.71145833333333,37.481249999999996,257.1927083333333
58,2011-03-08,218.43020833333333,32.348958333333336,250.77916666666667
58,2011-03-09,217.91354166666667,33.66770833333333,251.58125
58,2011-03-10,220.55729166666666,35.407291666666666,255.96458333333334
58,2011-03-11,141.27395833333333,30.426470588235293,171.70042892156863
58,2011-03-12,210.66875000000002,31.3125,241.98125000000002
58,2011-03-13,225.00833333333333,31.8875,256.8958333333333
58,2011-03-14,216.38333333333333,31.805208333333336,248.18854166666665
58,2011-03-15,212.27083333333334,34.05104166666667,246.321875
58,2011-03-16,204.28854166666667,31.339130434782607,235.6276721014493
58,2011-03-17,0.0,,0.0
58,2011-03-18,7.815625,28.3,36.115625
58,2011-03-19,206.58124999999998,32.170833333333334,238.7520833333333
58,2011-03-20,222.890625,31.22083333333333,254.11145833333333
58,2011-03-21,199.73958333333334,34.043749999999996,233.78333333333333
58,2011-03-22,183.0739583333333,31.943749999999998,215.0177083333333
58,2011-03-23,204.82708333333335,33.978125,238.80520833333335
58,2011-03-24,201.321875,31.412499999999998,232.734375
58,2011-03-25,187.06041666666667,34.770833333333336,221.83125
58,2011-03-26,199.7125,32.946875,232.659375
58,2011-03-27,195.46979166666665,32.12083333333333,227.590625
58,2011-03-28,215.11041666666665,32.862500000000004,247.97291666666666
58,2011-03-29,214.26874999999998,31.405208333333334,245.6739583333333
58,2011-03-30,209.7385416666667,32.79895833333333,242.53750000000002
58,2011-03-31,215.65833333333333,33.1875,248.84583333333333
58,2011-04-01,215.8552083333333,31.553124999999998,247.4083333333333
58,2011-04-02,208.95416666666665,33.217708333333334,242.171875
58,2011-04-03,210.390625,32.776041666666664,243.16666666666666
58,2011-04-04,216.546875,33.18125,249.728125
58,2011-04-05,212.89374999999998,33.85434782608696,246.74809782608693
58,2011-04-06,0.0,,0.0
58,2011-04-07,0.0,,0.0
58,2011-04-08,0.0,,0.0
58,2011-04-09,0.0,,0.0
58,2011-04-10,0.0,,0.0
58,2011-04-11,0.0,,0.0
58,2011-04-12,0.0,,0.0
58,2011-04-13,0.0,,0.0
58,2011-04-14,0.0,,0.0
58,2011-04-15,0.0,,0.0
58,2011-04-16,0.0,,0.0
58,2011-04-17,7.986458333333334,29.9,37.88645833333333
58,2011-04-18,184.40833333333333,30.490624999999998,214.89895833333333
58,2011-04-19,186.46562500000002,32.104166666666664,218.56979166666667
58,2011-04-20,188.19791666666666,33.58645833333333,221.78437499999998
58,2011-04-21,185.984375,33.28854166666667,219.27291666666667
58,2011-04-22,190.69583333333333,33.376041666666666,224.07187499999998
58,2011-04-23,181.4177083333333,33.19375,214.6114583333333
58,2011-04-24,179.04479166666667,32.346875000000004,211.39166666666668
58,2011-04-25,192.04895833333333,31.286458333333332,223.33541666666667
58,2011-04-26,216.49270833333333,27.806250000000002,244.29895833333333
58,2011-04-27,220.0197916666667,31.12291666666667,251.14270833333336
58,2011-04-28,215.16354166666667,29.819791666666664,244.98333333333335
58,2011-04-29,208.9333333333333,29.448958333333334,238.38229166666665
58,2011-04-30,216.83854166666666,30.182291666666668,247.02083333333331
58,2011-05-01,222.365625,30.438541666666666,252.80416666666667
58,2011-05-02,154.84479166666668,99.215625,254.0604166666667
58,2011-05-03,180.025,71.30520833333334,251.33020833333336
58,2011-05-04,222.41666666666666,37.115625,259.53229166666665
58,2011-05-05,224.3791666666667,35.040625,259.4197916666667
58,2011-05-06,25.125,183.17395833333333,208.29895833333333
58,2011-05-07,123.67083333333333,100.503125,224.17395833333333
58,2011-05-08,132.85729166666667,124.590625,257.4479166666667
58,2011-05-09,120.08333333333333,134.68020833333333,254.76354166666664
58,2011-05-10,219.23958333333334,40.89895833333333,260.1385416666667
58,2011-05-11,222.7125,27.71666666666667,250.42916666666667
58,2011-05-12,139.45104166666667,110.66145833333333,250.1125
58,2011-05-13,107.72916666666667,125.87083333333334,233.60000000000002
58,2011-05-14,232.54895833333333,29.51354166666667,262.0625
58,2011-05-15,240.2125,31.257291666666664,271.46979166666665
58,2011-05-16,237.53854166666667,31.411458333333332,268.95
58,2011-05-17,241.45520833333333,34.74375,276.19895833333334
58,2011-05-18,230.109375,41.265625,271.375
58,2011-05-19,213.5427083333333,32.47291666666667,246.01562499999997
58,2011-05-20,216.45000000000002,31.952083333333334,248.40208333333334
58,2011-05-21,218.94375,31.316666666666666,250.26041666666666
58,2011-05-22,220.84479166666665,36.58229166666667,257.4270833333333
58,2011-05-23,220.36145833333333,46.958333333333336,267.3197916666667